weather.gov     
National Weather Service

Terminal Aerodrome Forecast
NWS Homepage
This page is being discontinued on March 12, 2014.
The same data is available at this site. Please update your bookmarks.
Thank you, and we apologize for the inconvenience.
Please send an email to SR-SRH.Webmaster@noaa.gov with any concerns.


Current Version
Previous Version:    01  02  03  04  05  06  07  08  09  10  11  12  13  14  15  16  17  18  19  20  21  22  23  24  25  26  27  
[Printable]
420
FTAK31 PAJN 290500
TAFASI
TAF
PASI 290524Z 2906/3006 13010KT P6SM -RA SCT020 OVC050
     FM290700 14010G20KT 6SM -RA SCT020 OVC040 WS020/14030KT
     FM291300 14010KT 3SM -RA SCT015 OVC030
     FM291700 12006KT P6SM -SHRA SCT015 OVC030
     FM300100 14006KT P6SM VCSH SCT015 OVC040=


U.S. Dept. of Commerce
NOAA National Weather Service
1325 East West Highway
Silver Spring, MD 20910
E-mail: w-nws.webmaster@noaa.gov
Page last modified: May 16, 2007
NATIONAL WEATHER SERVICE: for Safety, for Work, for Fun - FOR LIFE